contact:dominique.lefevre@mio.osupytheas.fr, maurice.libes@osupytheas.fr, didier.mallarino@osupytheas.fr
Project:EMSO http://www.emso-fr.org/EMSO-France
Depth: 2436.0 m
Title:EMSO Ligure Ouest : Data MII capteur MICROCAT
DateTime_Computer,Latitude,Longitude,Temperature,Conductivity,Pressure,DateTime_Instrument
DateTime_Computer,Latitude,Longitude,degC,S m-1,dbar,DateTime_Instrument
2023-08-28T00:02:46Z,42.805,6.029,13.3091,4.60132,2470.73,2023-8-28T02:05:06Z
2023-08-28T00:05:49Z,42.805,6.029,13.3113,4.60145,2470.717,2023-8-28T02:08:09Z
2023-08-28T00:08:52Z,42.805,6.029,13.3104,4.60135,2470.684,2023-8-28T02:11:12Z
2023-08-28T00:11:55Z,42.805,6.029,13.3094,4.60136,2470.707,2023-8-28T02:14:15Z
2023-08-28T00:14:58Z,42.805,6.029,13.3089,4.60137,2470.707,2023-8-28T02:17:19Z
2023-08-28T00:18:01Z,42.805,6.029,13.3089,4.60131,2470.707,2023-8-28T02:20:22Z
2023-08-28T00:21:04Z,42.805,6.029,13.3088,4.60135,2470.693,2023-8-28T02:23:25Z
2023-08-28T00:24:07Z,42.805,6.029,13.3089,4.60136,2470.707,2023-8-28T02:26:28Z
2023-08-28T00:27:10Z,42.805,6.029,13.3087,4.60136,2470.707,2023-8-28T02:29:31Z
2023-08-28T00:30:14Z,42.805,6.029,13.3082,4.60137,2470.717,2023-8-28T02:32:34Z
2023-08-28T00:33:17Z,42.805,6.029,13.3076,4.60133,2470.693,2023-8-28T02:35:37Z
2023-08-28T00:36:20Z,42.805,6.029,13.3095,4.60132,2470.684,2023-8-28T02:38:40Z
2023-08-28T00:39:23Z,42.805,6.029,13.3082,4.60139,2470.717,2023-8-28T02:41:43Z
2023-08-28T00:42:26Z,42.805,6.029,13.3078,4.60135,2470.754,2023-8-28T02:44:46Z
2023-08-28T00:45:29Z,42.805,6.029,13.3084,4.60128,2470.693,2023-8-28T02:47:49Z
2023-08-28T00:48:32Z,42.805,6.029,13.3067,4.60126,2470.707,2023-8-28T02:50:52Z
2023-08-28T00:51:35Z,42.805,6.029,13.3076,4.60127,2470.693,2023-8-28T02:53:56Z
2023-08-28T00:54:38Z,42.805,6.029,13.3079,4.60133,2470.707,2023-8-28T02:56:59Z
2023-08-28T00:57:41Z,42.805,6.029,13.3076,4.60132,2470.717,2023-8-28T03:00:02Z
2023-08-28T01:00:44Z,42.805,6.029,13.3070,4.60128,2470.717,2023-8-28T03:03:05Z
2023-08-28T01:03:47Z,42.805,6.029,13.3067,4.60122,2470.693,2023-8-28T03:06:08Z
2023-08-28T01:06:51Z,42.805,6.029,13.3064,4.60128,2470.707,2023-8-28T03:09:11Z
2023-08-28T01:09:54Z,42.805,6.029,13.3068,4.60122,2470.693,2023-8-28T03:12:14Z
2023-08-28T01:12:57Z,42.805,6.029,13.3068,4.60127,2470.73,2023-8-28T03:15:17Z
2023-08-28T01:16:00Z,42.805,6.029,13.3063,4.60123,2470.754,2023-8-28T03:18:20Z
2023-08-28T01:19:03Z,42.805,6.029,13.3064,4.60120,2470.73,2023-8-28T03:21:23Z
2023-08-28T01:22:06Z,42.805,6.029,13.3067,4.60125,2470.707,2023-8-28T03:24:26Z
2023-08-28T01:25:09Z,42.805,6.029,13.3074,4.60119,2470.73,2023-8-28T03:27:29Z
2023-08-28T01:28:12Z,42.805,6.029,13.3085,4.60137,2470.693,2023-8-28T03:30:33Z
2023-08-28T01:31:15Z,42.805,6.029,13.3073,4.60121,2470.717,2023-8-28T03:33:36Z
2023-08-28T01:34:18Z,42.805,6.029,13.3066,4.60129,2470.74,2023-8-28T03:36:39Z
2023-08-28T01:37:21Z,42.805,6.029,13.3070,4.60114,2470.693,2023-8-28T03:39:42Z
2023-08-28T01:40:24Z,42.805,6.029,13.3071,4.60134,2470.717,2023-8-28T03:42:45Z
2023-08-28T01:43:28Z,42.805,6.029,13.3066,4.60127,2470.707,2023-8-28T03:45:48Z
2023-08-28T01:46:31Z,42.805,6.029,13.3054,4.60140,2470.754,2023-8-28T03:48:51Z
2023-08-28T01:49:34Z,42.805,6.029,13.3062,4.60125,2470.693,2023-8-28T03:51:54Z
2023-08-28T01:52:37Z,42.805,6.029,13.3067,4.60119,2470.717,2023-8-28T03:54:57Z
2023-08-28T01:55:40Z,42.805,6.029,13.3063,4.60129,2470.73,2023-8-28T03:58:00Z
2023-08-28T01:58:43Z,42.805,6.029,13.3069,4.60127,2470.693,2023-8-28T04:01:03Z
2023-08-28T02:01:46Z,42.805,6.029,13.3069,4.60131,2470.693,2023-8-28T04:04:06Z
2023-08-28T02:04:49Z,42.805,6.029,13.3073,4.60137,2470.717,2023-8-28T04:07:10Z
2023-08-28T02:07:52Z,42.805,6.029,13.3067,4.60117,2470.717,2023-8-28T04:10:13Z
2023-08-28T02:10:55Z,42.805,6.029,13.3078,4.60125,2470.717,2023-8-28T04:13:16Z
2023-08-28T02:13:58Z,42.805,6.029,13.3068,4.60120,2470.717,2023-8-28T04:16:19Z
2023-08-28T02:17:01Z,42.805,6.029,13.3074,4.60123,2470.73,2023-8-28T04:19:22Z
2023-08-28T02:20:05Z,42.805,6.029,13.3069,4.60127,2470.754,2023-8-28T04:22:25Z
2023-08-28T02:23:08Z,42.805,6.029,13.3066,4.60123,2470.777,2023-8-28T04:25:28Z
2023-08-28T02:26:11Z,42.805,6.029,13.3052,4.60127,2470.73,2023-8-28T04:28:31Z
2023-08-28T02:29:14Z,42.805,6.029,13.3083,4.60138,2470.707,2023-8-28T04:31:34Z
2023-08-28T02:32:17Z,42.805,6.029,13.3057,4.60122,2470.717,2023-8-28T04:34:37Z
2023-08-28T02:35:20Z,42.805,6.029,13.3068,4.60139,2470.717,2023-8-28T04:37:40Z
2023-08-28T02:38:23Z,42.805,6.029,13.3062,4.60124,2470.707,2023-8-28T04:40:43Z
2023-08-28T02:41:26Z,42.805,6.029,13.3061,4.60130,2470.74,2023-8-28T04:43:47Z
2023-08-28T02:44:29Z,42.805,6.029,13.3063,4.60135,2470.693,2023-8-28T04:46:50Z
2023-08-28T02:47:32Z,42.805,6.029,13.3069,4.60119,2470.707,2023-8-28T04:49:53Z
2023-08-28T02:50:35Z,42.805,6.029,13.3046,4.60133,2470.73,2023-8-28T04:52:56Z
2023-08-28T02:53:38Z,42.805,6.029,13.3057,4.60144,2470.717,2023-8-28T04:55:59Z
2023-08-28T02:56:42Z,42.805,6.029,13.3054,4.60130,2470.777,2023-8-28T04:59:02Z
2023-08-28T02:59:45Z,42.805,6.029,13.3051,4.60131,2470.74,2023-8-28T05:02:05Z
2023-08-28T03:02:48Z,42.805,6.029,13.3066,4.60127,2470.717,2023-8-28T05:05:08Z
2023-08-28T03:05:51Z,42.805,6.029,13.3055,4.60122,2470.74,2023-8-28T05:08:11Z
2023-08-28T03:08:54Z,42.805,6.029,13.3041,4.60132,2470.717,2023-8-28T05:11:14Z
2023-08-28T03:11:57Z,42.805,6.029,13.3061,4.60141,2470.74,2023-8-28T05:14:17Z
2023-08-28T03:15:00Z,42.805,6.029,13.3029,4.60114,2470.717,2023-8-28T05:17:20Z
2023-08-28T03:18:03Z,42.805,6.029,13.3032,4.60104,2470.754,2023-8-28T05:20:24Z
2023-08-28T03:21:06Z,42.805,6.029,13.3031,4.60111,2470.74,2023-8-28T05:23:27Z
2023-08-28T03:24:09Z,42.805,6.029,13.3037,4.60117,2470.717,2023-8-28T05:26:30Z
2023-08-28T03:27:12Z,42.805,6.029,13.3037,4.60135,2470.717,2023-8-28T05:29:33Z
2023-08-28T03:30:15Z,42.805,6.029,13.3037,4.60131,2470.754,2023-8-28T05:32:36Z
2023-08-28T03:33:19Z,42.805,6.029,13.3031,4.60107,2470.754,2023-8-28T05:35:39Z
2023-08-28T03:36:22Z,42.805,6.029,13.3030,4.60101,2470.754,2023-8-28T05:38:42Z
2023-08-28T03:39:25Z,42.805,6.029,13.3027,4.60102,2470.74,2023-8-28T05:41:45Z
2023-08-28T03:42:28Z,42.805,6.029,13.3031,4.60107,2470.777,2023-8-28T05:44:48Z
2023-08-28T03:45:31Z,42.805,6.029,13.3032,4.60101,2470.717,2023-8-28T05:47:51Z
2023-08-28T03:48:34Z,42.805,6.029,13.3030,4.60102,2470.754,2023-8-28T05:50:54Z
2023-08-28T03:51:37Z,42.805,6.029,13.3030,4.60104,2470.763,2023-8-28T05:53:57Z
2023-08-28T03:54:40Z,42.805,6.029,13.3034,4.60098,2470.74,2023-8-28T05:57:01Z
2023-08-28T03:57:43Z,42.805,6.029,13.3031,4.60098,2470.74,2023-8-28T06:00:04Z
2023-08-28T04:00:46Z,42.805,6.029,13.3032,4.60102,2470.74,2023-8-28T06:03:07Z
2023-08-28T04:03:49Z,42.805,6.029,13.3031,4.60105,2470.74,2023-8-28T06:06:10Z
2023-08-28T04:06:52Z,42.805,6.029,13.3034,4.60102,2470.754,2023-8-28T06:09:13Z
2023-08-28T04:09:56Z,42.805,6.029,13.3031,4.60099,2470.74,2023-8-28T06:12:16Z
2023-08-28T04:12:59Z,42.805,6.029,13.3032,4.60097,2470.754,2023-8-28T06:15:19Z
2023-08-28T04:16:02Z,42.805,6.029,13.3029,4.60098,2470.754,2023-8-28T06:18:22Z
2023-08-28T04:19:05Z,42.805,6.029,13.3034,4.60098,2470.74,2023-8-28T06:21:25Z
2023-08-28T04:22:08Z,42.805,6.029,13.3031,4.60097,2470.717,2023-8-28T06:24:28Z
2023-08-28T04:25:11Z,42.805,6.029,13.3031,4.60097,2470.717,2023-8-28T06:27:31Z
2023-08-28T04:28:14Z,42.805,6.029,13.3030,4.60097,2470.717,2023-8-28T06:30:34Z
2023-08-28T04:31:17Z,42.805,6.029,13.3033,4.60098,2470.73,2023-8-28T06:33:38Z
2023-08-28T04:34:20Z,42.805,6.029,13.3029,4.60098,2470.74,2023-8-28T06:36:41Z
2023-08-28T04:37:23Z,42.805,6.029,13.3030,4.60099,2470.717,2023-8-28T06:39:44Z
2023-08-28T04:40:26Z,42.805,6.029,13.3031,4.60096,2470.74,2023-8-28T06:42:47Z
2023-08-28T04:43:29Z,42.805,6.029,13.3034,4.60096,2470.754,2023-8-28T06:45:50Z
2023-08-28T04:46:33Z,42.805,6.029,13.3029,4.60097,2470.74,2023-8-28T06:48:53Z
2023-08-28T04:49:36Z,42.805,6.029,13.3031,4.60099,2470.707,2023-8-28T06:51:56Z
2023-08-28T04:52:39Z,42.805,6.029,13.3031,4.60097,2470.763,2023-8-28T06:54:59Z
2023-08-28T04:55:42Z,42.805,6.029,13.3030,4.60097,2470.717,2023-8-28T06:58:02Z
2023-08-28T04:58:45Z,42.805,6.029,13.3030,4.60098,2470.717,2023-8-28T07:01:05Z
2023-08-28T05:01:48Z,42.805,6.029,13.3036,4.60097,2470.74,2023-8-28T07:04:08Z
2023-08-28T05:04:51Z,42.805,6.029,13.3029,4.60096,2470.754,2023-8-28T07:07:11Z
2023-08-28T05:07:54Z,42.805,6.029,13.3030,4.60095,2470.763,2023-8-28T07:10:15Z
2023-08-28T05:10:57Z,42.805,6.029,13.3031,4.60096,2470.777,2023-8-28T07:13:18Z
2023-08-28T05:14:00Z,42.805,6.029,13.3033,4.60096,2470.74,2023-8-28T07:16:21Z
2023-08-28T05:17:03Z,42.805,6.029,13.3029,4.60097,2470.74,2023-8-28T07:19:24Z
2023-08-28T05:20:06Z,42.805,6.029,13.3035,4.60096,2470.73,2023-8-28T07:22:27Z
2023-08-28T05:23:10Z,42.805,6.029,13.3032,4.60095,2470.754,2023-8-28T07:25:30Z
2023-08-28T05:26:13Z,42.805,6.029,13.3035,4.60097,2470.754,2023-8-28T07:28:33Z
2023-08-28T05:29:16Z,42.805,6.029,13.3035,4.60096,2470.777,2023-8-28T07:31:36Z
2023-08-28T05:32:19Z,42.805,6.029,13.3027,4.60096,2470.74,2023-8-28T07:34:39Z
2023-08-28T05:35:22Z,42.805,6.029,13.3034,4.60096,2470.754,2023-8-28T07:37:42Z
2023-08-28T05:38:25Z,42.805,6.029,13.3031,4.60095,2470.74,2023-8-28T07:40:45Z
2023-08-28T05:41:28Z,42.805,6.029,13.3032,4.60097,2470.777,2023-8-28T07:43:48Z
2023-08-28T05:44:31Z,42.805,6.029,13.3034,4.60096,2470.777,2023-8-28T07:46:52Z
2023-08-28T05:47:34Z,42.805,6.029,13.3030,4.60096,2470.754,2023-8-28T07:49:55Z
2023-08-28T05:50:37Z,42.805,6.029,13.3033,4.60097,2470.74,2023-8-28T07:52:58Z
2023-08-28T05:53:40Z,42.805,6.029,13.3031,4.60098,2470.754,2023-8-28T07:56:01Z
2023-08-28T05:56:43Z,42.805,6.029,13.3031,4.60096,2470.717,2023-8-28T07:59:04Z
2023-08-28T05:59:47Z,42.805,6.029,13.3034,4.60095,2470.777,2023-8-28T08:02:07Z
2023-08-28T06:02:50Z,42.805,6.029,13.3026,4.60095,2470.74,2023-8-28T08:05:10Z
2023-08-28T06:05:53Z,42.805,6.029,13.3031,4.60097,2470.777,2023-8-28T08:08:13Z
2023-08-28T06:08:56Z,42.805,6.029,13.3031,4.60096,2470.73,2023-8-28T08:11:16Z
2023-08-28T06:11:59Z,42.805,6.029,13.3034,4.60097,2470.73,2023-8-28T08:14:19Z
2023-08-28T06:15:02Z,42.805,6.029,13.3031,4.60097,2470.763,2023-8-28T08:17:22Z
2023-08-28T06:18:05Z,42.805,6.029,13.3032,4.60096,2470.74,2023-8-28T08:20:25Z
2023-08-28T06:21:08Z,42.805,6.029,13.3033,4.60097,2470.717,2023-8-28T08:23:29Z
2023-08-28T06:24:11Z,42.805,6.029,13.3029,4.60097,2470.754,2023-8-28T08:26:32Z
2023-08-28T06:27:14Z,42.805,6.029,13.3031,4.60097,2470.717,2023-8-28T08:29:35Z
2023-08-28T06:30:17Z,42.805,6.029,13.3031,4.60096,2470.754,2023-8-28T08:32:38Z
2023-08-28T06:33:20Z,42.805,6.029,13.3029,4.60097,2470.74,2023-8-28T08:35:41Z
2023-08-28T06:36:24Z,42.805,6.029,13.3029,4.60096,2470.754,2023-8-28T08:38:44Z
2023-08-28T06:39:27Z,42.805,6.029,13.3031,4.60096,2470.73,2023-8-28T08:41:47Z
2023-08-28T06:42:30Z,42.805,6.029,13.3031,4.60095,2470.74,2023-8-28T08:44:50Z
2023-08-28T06:45:33Z,42.805,6.029,13.3033,4.60097,2470.73,2023-8-28T08:47:53Z
2023-08-28T06:48:36Z,42.805,6.029,13.3029,4.60097,2470.717,2023-8-28T08:50:56Z
2023-08-28T06:51:39Z,42.805,6.029,13.3033,4.60097,2470.717,2023-8-28T08:53:59Z
2023-08-28T06:54:42Z,42.805,6.029,13.3034,4.60096,2470.717,2023-8-28T08:57:02Z
2023-08-28T06:57:45Z,42.805,6.029,13.3030,4.60094,2470.717,2023-8-28T09:00:06Z
2023-08-28T07:00:48Z,42.805,6.029,13.3031,4.60096,2470.73,2023-8-28T09:03:09Z
2023-08-28T07:03:51Z,42.805,6.029,13.3031,4.60097,2470.717,2023-8-28T09:06:12Z
2023-08-28T07:06:54Z,42.805,6.029,13.3031,4.60097,2470.73,2023-8-28T09:09:15Z
2023-08-28T07:09:57Z,42.805,6.029,13.3028,4.60095,2470.717,2023-8-28T09:12:18Z
2023-08-28T07:13:01Z,42.805,6.029,13.3032,4.60098,2470.67,2023-8-28T09:15:21Z
2023-08-28T07:16:04Z,42.805,6.029,13.3030,4.60096,2470.707,2023-8-28T09:18:24Z
2023-08-28T07:19:07Z,42.805,6.029,13.3032,4.60095,2470.717,2023-8-28T09:21:27Z
2023-08-28T07:22:10Z,42.805,6.029,13.3030,4.60095,2470.693,2023-8-28T09:24:30Z
2023-08-28T07:25:13Z,42.805,6.029,13.3029,4.60095,2470.67,2023-8-28T09:27:33Z
2023-08-28T07:28:16Z,42.805,6.029,13.3031,4.60096,2470.67,2023-8-28T09:30:36Z
2023-08-28T07:31:19Z,42.805,6.029,13.3034,4.60097,2470.67,2023-8-28T09:33:39Z
2023-08-28T07:34:22Z,42.805,6.029,13.3031,4.60097,2470.73,2023-8-28T09:36:43Z
2023-08-28T07:37:25Z,42.805,6.029,13.3032,4.60097,2470.67,2023-8-28T09:39:46Z
2023-08-28T07:40:28Z,42.805,6.029,13.3032,4.60097,2470.67,2023-8-28T09:42:49Z
2023-08-28T07:43:31Z,42.805,6.029,13.3029,4.60096,2470.67,2023-8-28T09:45:52Z
2023-08-28T07:46:34Z,42.805,6.029,13.3032,4.60097,2470.67,2023-8-28T09:48:55Z
2023-08-28T07:49:38Z,42.805,6.029,13.3031,4.60098,2470.707,2023-8-28T09:51:58Z
2023-08-28T07:52:41Z,42.805,6.029,13.3034,4.60095,2470.707,2023-8-28T09:55:01Z
2023-08-28T07:55:44Z,42.805,6.029,13.3034,4.60097,2470.661,2023-8-28T09:58:04Z
2023-08-28T07:58:47Z,42.805,6.029,13.3028,4.60095,2470.661,2023-8-28T10:01:07Z
2023-08-28T08:01:50Z,42.805,6.029,13.3033,4.60094,2470.661,2023-8-28T10:04:10Z
2023-08-28T08:04:53Z,42.805,6.029,13.3031,4.60094,2470.693,2023-8-28T10:07:13Z
2023-08-28T08:07:56Z,42.805,6.029,13.3031,4.60096,2470.684,2023-8-28T10:10:16Z
2023-08-28T08:10:59Z,42.805,6.029,13.3031,4.60095,2470.67,2023-8-28T10:13:20Z
2023-08-28T08:14:02Z,42.805,6.029,13.3031,4.60097,2470.693,2023-8-28T10:16:23Z
2023-08-28T08:17:05Z,42.805,6.029,13.3031,4.60096,2470.693,2023-8-28T10:19:26Z
2023-08-28T08:20:08Z,42.805,6.029,13.3034,4.60096,2470.67,2023-8-28T10:22:29Z
2023-08-28T08:23:11Z,42.805,6.029,13.3031,4.60097,2470.646,2023-8-28T10:25:32Z
2023-08-28T08:26:15Z,42.805,6.029,13.3030,4.60096,2470.624,2023-8-28T10:28:35Z
2023-08-28T08:29:18Z,42.805,6.029,13.3032,4.60096,2470.67,2023-8-28T10:31:38Z
2023-08-28T08:32:19Z,42.805,6.029,13.3034,4.60098,2470.67,2023-8-28T10:34:39Z
2023-08-28T08:35:22Z,42.805,6.029,13.3035,4.60095,2470.646,2023-8-28T10:37:42Z
2023-08-28T08:38:25Z,42.805,6.029,13.3033,4.60094,2470.646,2023-8-28T10:40:46Z
2023-08-28T08:41:28Z,42.805,6.029,13.3029,4.60094,2470.67,2023-8-28T10:43:49Z
2023-08-28T08:44:31Z,42.805,6.029,13.3030,4.60095,2470.646,2023-8-28T10:46:52Z
2023-08-28T08:47:34Z,42.805,6.029,13.3034,4.60098,2470.624,2023-8-28T10:49:55Z
2023-08-28T08:50:37Z,42.805,6.029,13.3034,4.60095,2470.67,2023-8-28T10:52:58Z
2023-08-28T08:53:41Z,42.805,6.029,13.3034,4.60094,2470.67,2023-8-28T10:56:01Z
2023-08-28T08:56:44Z,42.805,6.029,13.3031,4.60096,2470.646,2023-8-28T10:59:04Z
2023-08-28T08:59:47Z,42.805,6.029,13.3032,4.60096,2470.646,2023-8-28T11:02:07Z
2023-08-28T09:02:50Z,42.805,6.029,13.3032,4.60095,2470.646,2023-8-28T11:05:10Z
2023-08-28T09:05:53Z,42.805,6.029,13.3033,4.60094,2470.646,2023-8-28T11:08:13Z
2023-08-28T09:08:56Z,42.805,6.029,13.3034,4.60095,2470.67,2023-8-28T11:11:16Z
2023-08-28T09:11:59Z,42.805,6.029,13.3031,4.60097,2470.661,2023-8-28T11:14:19Z
2023-08-28T09:15:02Z,42.805,6.029,13.3034,4.60095,2470.637,2023-8-28T11:17:23Z
2023-08-28T09:18:05Z,42.805,6.029,13.3033,4.60095,2470.661,2023-8-28T11:20:26Z
2023-08-28T09:21:08Z,42.805,6.029,13.3032,4.60097,2470.624,2023-8-28T11:23:29Z
2023-08-28T09:24:11Z,42.805,6.029,13.3034,4.60094,2470.646,2023-8-28T11:26:32Z
2023-08-28T09:27:14Z,42.805,6.029,13.3031,4.60094,2470.624,2023-8-28T11:29:35Z
2023-08-28T09:30:18Z,42.805,6.029,13.3034,4.60094,2470.624,2023-8-28T11:32:38Z
2023-08-28T09:33:21Z,42.805,6.029,13.3030,4.60097,2470.624,2023-8-28T11:35:41Z
2023-08-28T09:36:24Z,42.805,6.029,13.3029,4.60096,2470.637,2023-8-28T11:38:44Z
2023-08-28T09:39:27Z,42.805,6.029,13.3034,4.60094,2470.684,2023-8-28T11:41:47Z
2023-08-28T09:42:30Z,42.805,6.029,13.3029,4.60093,2470.637,2023-8-28T11:44:50Z
2023-08-28T09:45:33Z,42.805,6.029,13.3031,4.60092,2470.624,2023-8-28T11:47:53Z
2023-08-28T09:48:36Z,42.805,6.029,13.3034,4.60092,2470.637,2023-8-28T11:50:57Z
2023-08-28T09:51:39Z,42.805,6.029,13.3032,4.60094,2470.637,2023-8-28T11:54:00Z
2023-08-28T09:54:42Z,42.805,6.029,13.3034,4.60092,2470.624,2023-8-28T11:57:03Z
2023-08-28T09:57:45Z,42.805,6.029,13.3030,4.60096,2470.637,2023-8-28T12:00:06Z
2023-08-28T10:00:48Z,42.805,6.029,13.3029,4.60094,2470.6,2023-8-28T12:03:09Z
2023-08-28T10:03:52Z,42.805,6.029,13.3033,4.60093,2470.646,2023-8-28T12:06:12Z
2023-08-28T10:06:55Z,42.805,6.029,13.3028,4.60094,2470.624,2023-8-28T12:09:15Z
2023-08-28T10:09:58Z,42.805,6.029,13.3031,4.60094,2470.6,2023-8-28T12:12:18Z
2023-08-28T10:13:01Z,42.805,6.029,13.3031,4.60092,2470.577,2023-8-28T12:15:21Z
2023-08-28T10:16:04Z,42.805,6.029,13.3025,4.60093,2470.6,2023-8-28T12:18:24Z
2023-08-28T10:19:07Z,42.805,6.029,13.3032,4.60096,2470.614,2023-8-28T12:21:27Z
2023-08-28T10:22:10Z,42.805,6.029,13.3036,4.60094,2470.6,2023-8-28T12:24:30Z
2023-08-28T10:25:13Z,42.805,6.029,13.3033,4.60092,2470.624,2023-8-28T12:27:34Z
2023-08-28T10:28:16Z,42.805,6.029,13.3029,4.60093,2470.591,2023-8-28T12:30:37Z
2023-08-28T10:31:18Z,42.805,6.029,13.3033,4.60092,2470.624,2023-8-28T12:33:38Z
2023-08-28T10:34:21Z,42.805,6.029,13.3031,4.60094,2470.624,2023-8-28T12:36:41Z
2023-08-28T10:37:24Z,42.805,6.029,13.3034,4.60092,2470.591,2023-8-28T12:39:44Z
2023-08-28T10:40:27Z,42.805,6.029,13.3033,4.60093,2470.567,2023-8-28T12:42:47Z
2023-08-28T10:43:30Z,42.805,6.029,13.3032,4.60094,2470.614,2023-8-28T12:45:50Z
2023-08-28T10:46:33Z,42.805,6.029,13.3030,4.60093,2470.6,2023-8-28T12:48:53Z
2023-08-28T10:49:36Z,42.805,6.029,13.3035,4.60093,2470.6,2023-8-28T12:51:57Z
2023-08-28T10:52:39Z,42.805,6.029,13.3028,4.60094,2470.577,2023-8-28T12:55:00Z
2023-08-28T10:55:42Z,42.805,6.029,13.3033,4.60093,2470.577,2023-8-28T12:58:03Z
2023-08-28T10:58:45Z,42.805,6.029,13.3033,4.60096,2470.614,2023-8-28T13:01:06Z
2023-08-28T11:01:48Z,42.805,6.029,13.3031,4.60095,2470.577,2023-8-28T13:04:09Z
2023-08-28T11:04:52Z,42.805,6.029,13.3031,4.60093,2470.577,2023-8-28T13:07:12Z
2023-08-28T11:07:55Z,42.805,6.029,13.3030,4.60092,2470.591,2023-8-28T13:10:15Z
2023-08-28T11:10:58Z,42.805,6.029,13.3029,4.60099,2470.624,2023-8-28T13:13:18Z
2023-08-28T11:14:01Z,42.805,6.029,13.3032,4.60094,2470.624,2023-8-28T13:16:21Z
2023-08-28T11:17:04Z,42.805,6.029,13.3033,4.60093,2470.624,2023-8-28T13:19:24Z
2023-08-28T11:20:07Z,42.805,6.029,13.3027,4.60093,2470.614,2023-8-28T13:22:27Z
2023-08-28T11:23:10Z,42.805,6.029,13.3030,4.60094,2470.614,2023-8-28T13:25:31Z
2023-08-28T11:26:13Z,42.805,6.029,13.3031,4.60093,2470.614,2023-8-28T13:28:34Z
2023-08-28T11:29:16Z,42.805,6.029,13.3030,4.60093,2470.553,2023-8-28T13:31:37Z
2023-08-28T11:32:19Z,42.805,6.029,13.3029,4.60092,2470.614,2023-8-28T13:34:40Z
2023-08-28T11:35:23Z,42.805,6.029,13.3032,4.60095,2470.624,2023-8-28T13:37:43Z
2023-08-28T11:38:26Z,42.805,6.029,13.3029,4.60093,2470.624,2023-8-28T13:40:46Z
2023-08-28T11:41:29Z,42.805,6.029,13.3031,4.60094,2470.6,2023-8-28T13:43:49Z
2023-08-28T11:44:32Z,42.805,6.029,13.3033,4.60095,2470.577,2023-8-28T13:46:52Z
2023-08-28T11:47:35Z,42.805,6.029,13.3028,4.60096,2470.6,2023-8-28T13:49:55Z
2023-08-28T11:50:38Z,42.805,6.029,13.3031,4.60094,2470.553,2023-8-28T13:52:58Z
2023-08-28T11:53:41Z,42.805,6.029,13.3029,4.60098,2470.6,2023-8-28T13:56:02Z
2023-08-28T11:56:44Z,42.805,6.029,13.3033,4.60094,2470.6,2023-8-28T13:59:05Z
2023-08-28T11:59:47Z,42.805,6.029,13.3034,4.60094,2470.577,2023-8-28T14:02:08Z
2023-08-28T12:02:50Z,42.805,6.029,13.3034,4.60097,2470.577,2023-8-28T14:05:11Z
2023-08-28T12:05:53Z,42.805,6.029,13.3034,4.60113,2470.614,2023-8-28T14:08:14Z
2023-08-28T12:08:57Z,42.805,6.029,13.3031,4.60096,2470.577,2023-8-28T14:11:17Z
2023-08-28T12:12:00Z,42.805,6.029,13.3032,4.60097,2470.6,2023-8-28T14:14:20Z
2023-08-28T12:15:03Z,42.805,6.029,13.3033,4.60096,2470.6,2023-8-28T14:17:23Z
2023-08-28T12:18:06Z,42.805,6.029,13.3037,4.60111,2470.577,2023-8-28T14:20:26Z
2023-08-28T12:21:09Z,42.805,6.029,13.3031,4.60096,2470.637,2023-8-28T14:23:29Z
2023-08-28T12:24:12Z,42.805,6.029,13.3034,4.60095,2470.624,2023-8-28T14:26:32Z
2023-08-28T12:27:15Z,42.805,6.029,13.3032,4.60095,2470.624,2023-8-28T14:29:36Z
2023-08-28T12:30:18Z,42.805,6.029,13.3031,4.60096,2470.6,2023-8-28T14:32:39Z
2023-08-28T12:33:21Z,42.805,6.029,13.3033,4.60095,2470.624,2023-8-28T14:35:42Z
2023-08-28T12:36:24Z,42.805,6.029,13.3031,4.60093,2470.6,2023-8-28T14:38:45Z
2023-08-28T12:39:27Z,42.805,6.029,13.3034,4.60102,2470.6,2023-8-28T14:41:48Z
2023-08-28T12:42:30Z,42.805,6.029,13.3035,4.60096,2470.6,2023-8-28T14:44:51Z
2023-08-28T12:45:34Z,42.805,6.029,13.3033,4.60104,2470.637,2023-8-28T14:47:54Z
2023-08-28T12:48:37Z,42.805,6.029,13.3034,4.60095,2470.637,2023-8-28T14:50:57Z
2023-08-28T12:51:40Z,42.805,6.029,13.3031,4.60096,2470.624,2023-8-28T14:54:00Z
2023-08-28T12:54:43Z,42.805,6.029,13.3027,4.60097,2470.637,2023-8-28T14:57:03Z
2023-08-28T12:57:46Z,42.805,6.029,13.3028,4.60094,2470.624,2023-8-28T15:00:06Z
2023-08-28T13:00:49Z,42.805,6.029,13.3031,4.60098,2470.646,2023-8-28T15:03:09Z
2023-08-28T13:03:52Z,42.805,6.029,13.3031,4.60094,2470.646,2023-8-28T15:06:13Z
2023-08-28T13:06:55Z,42.805,6.029,13.3033,4.60095,2470.637,2023-8-28T15:09:16Z
2023-08-28T13:09:58Z,42.805,6.029,13.3033,4.60095,2470.661,2023-8-28T15:12:19Z
2023-08-28T13:13:01Z,42.805,6.029,13.3033,4.60096,2470.661,2023-8-28T15:15:22Z
2023-08-28T13:16:04Z,42.805,6.029,13.3033,4.60095,2470.661,2023-8-28T15:18:25Z
2023-08-28T13:19:08Z,42.805,6.029,13.3031,4.60097,2470.67,2023-8-28T15:21:28Z
2023-08-28T13:22:11Z,42.805,6.029,13.3030,4.60100,2470.624,2023-8-28T15:24:31Z
2023-08-28T13:25:14Z,42.805,6.029,13.3032,4.60099,2470.661,2023-8-28T15:27:34Z
2023-08-28T13:28:17Z,42.805,6.029,13.3033,4.60097,2470.646,2023-8-28T15:30:37Z
2023-08-28T13:31:20Z,42.805,6.029,13.3031,4.60107,2470.646,2023-8-28T15:33:40Z
2023-08-28T13:34:23Z,42.805,6.029,13.3031,4.60103,2470.67,2023-8-28T15:36:43Z
2023-08-28T13:37:26Z,42.805,6.029,13.3036,4.60099,2470.646,2023-8-28T15:39:47Z
2023-08-28T13:40:29Z,42.805,6.029,13.3032,4.60101,2470.661,2023-8-28T15:42:50Z
2023-08-28T13:43:32Z,42.805,6.029,13.3034,4.60110,2470.67,2023-8-28T15:45:53Z
2023-08-28T13:46:35Z,42.805,6.029,13.3029,4.60099,2470.67,2023-8-28T15:48:56Z
2023-08-28T13:49:38Z,42.805,6.029,13.3034,4.60099,2470.684,2023-8-28T15:51:59Z
2023-08-28T13:52:42Z,42.805,6.029,13.3029,4.60098,2470.646,2023-8-28T15:55:02Z
2023-08-28T13:55:45Z,42.805,6.029,13.3029,4.60096,2470.67,2023-8-28T15:58:05Z
2023-08-28T13:58:48Z,42.805,6.029,13.3036,4.60096,2470.707,2023-8-28T16:01:08Z
2023-08-28T14:01:51Z,42.805,6.029,13.3034,4.60096,2470.693,2023-8-28T16:04:11Z
2023-08-28T14:04:54Z,42.805,6.029,13.3031,4.60095,2470.67,2023-8-28T16:07:14Z
2023-08-28T14:07:57Z,42.805,6.029,13.3030,4.60094,2470.67,2023-8-28T16:10:17Z
2023-08-28T14:11:00Z,42.805,6.029,13.3032,4.60097,2470.707,2023-8-28T16:13:20Z
2023-08-28T14:14:03Z,42.805,6.029,13.3029,4.60097,2470.67,2023-8-28T16:16:24Z
2023-08-28T14:17:06Z,42.805,6.029,13.3032,4.60097,2470.67,2023-8-28T16:19:27Z
2023-08-28T14:20:09Z,42.805,6.029,13.3031,4.60097,2470.693,2023-8-28T16:22:30Z
2023-08-28T14:23:12Z,42.805,6.029,13.3030,4.60097,2470.67,2023-8-28T16:25:33Z
2023-08-28T14:26:15Z,42.805,6.029,13.3030,4.60097,2470.693,2023-8-28T16:28:36Z
2023-08-28T14:29:19Z,42.805,6.029,13.3030,4.60098,2470.73,2023-8-28T16:31:39Z
2023-08-28T14:32:22Z,42.805,6.029,13.3031,4.60110,2470.707,2023-8-28T16:34:42Z
2023-08-28T14:35:25Z,42.805,6.029,13.3028,4.60098,2470.684,2023-8-28T16:37:45Z
2023-08-28T14:38:28Z,42.805,6.029,13.3031,4.60098,2470.717,2023-8-28T16:40:48Z
2023-08-28T14:41:31Z,42.805,6.029,13.3034,4.60104,2470.73,2023-8-28T16:43:51Z
2023-08-28T14:44:34Z,42.805,6.029,13.3033,4.60107,2470.703,2023-8-28T16:46:54Z
2023-08-28T14:47:37Z,42.805,6.029,13.3034,4.60099,2470.717,2023-8-28T16:49:58Z
2023-08-28T14:50:40Z,42.805,6.029,13.3032,4.60097,2470.717,2023-8-28T16:53:01Z
2023-08-28T14:53:43Z,42.805,6.029,13.3031,4.60097,2470.717,2023-8-28T16:56:04Z
2023-08-28T14:56:46Z,42.805,6.029,13.3030,4.60097,2470.74,2023-8-28T16:59:07Z
2023-08-28T14:59:49Z,42.805,6.029,13.3032,4.60114,2470.693,2023-8-28T17:02:10Z
2023-08-28T15:02:52Z,42.805,6.029,13.3029,4.60097,2470.74,2023-8-28T17:05:13Z
2023-08-28T15:05:56Z,42.805,6.029,13.3031,4.60096,2470.693,2023-8-28T17:08:16Z
2023-08-28T15:08:59Z,42.805,6.029,13.3031,4.60102,2470.74,2023-8-28T17:11:19Z
2023-08-28T15:12:02Z,42.805,6.029,13.3032,4.60096,2470.73,2023-8-28T17:14:22Z
2023-08-28T15:15:05Z,42.805,6.029,13.3034,4.60096,2470.717,2023-8-28T17:17:25Z